Regional Weather Roundup
Issued by NWS

Home | Current Version | Previous Version | Text Only | Print | Product List | Glossary On
Versions: 1 2 3 4 5 6 7 8 9 10 11 12 13 14 15 16 17 18 19 20 21 22 23 24 25 26 27 28 29 30 31 32 33 34 35 36 37 38 39 40 41 42 43 44 45 46 47 48 49 50
000
ASUS44 KLIX 300611
RWRLA
LOUISIANA WEATHER ROUNDUP
NATIONAL WEATHER SERVICE NEW ORLEANS LA
100 AM CDT SAT MAY 30 2015

NOTE: "FAIR" INDICATES FEW OR NO CLOUDS BELOW 12,000 FEET WITH NO
      SIGNIFICANT WEATHER AND/OR OBSTRUCTIONS TO VISIBILITY.
      SKY/WX - SKY CONDITION AND SIGNIFICANT WEATHER.
      TMP - AIR TEMPERATURE.    DP   - DEWPOINT TEMPERATURE.
      RH  - RELATIVE HUMIDITY.  PRES - PRESSURE.
      HX  - HEAT INDEX.         WCI  - WIND CHILL INDEX.

*  THESE STATIONS ARE NOT NWS OR FAA STATIONS AND ARE NOT UNDER
   NWS QUALITY CONTROL.

LAZ040-048-061>063-065-066-069-300700-
SOUTHEAST LOUISIANA

CITY           SKY/WX    TMP DP  RH WIND       PRES   REMARKS
N.O. AUDUBON     N/A     76  73  89 MISG        N/A
6HR MIN TEMP:  76; 6HR MAX TEMP:  82;

N.O. INTL ARPT PTCLDY    76  69  79 SE6       30.05S
6HR MIN TEMP:  76; 6HR MAX TEMP:  81;

N.O. LAKEFRONT PTCLDY    79  70  74 SE3       30.05F
6HR MIN TEMP:  78; 6HR MAX TEMP:  84;

SLIDELL        CLEAR     72  71  97 CALM      30.05S
6HR MIN TEMP:  72; 6HR MAX TEMP:  81; 6HR PCP:  0.03;

BATON ROUGE    PTCLDY    72  70  93 E6        30.04F
6HR MIN TEMP:  71; 6HR MAX TEMP:  79;

BOOTHVILLE     PTCLDY    77  73  87 SE3       30.05S
6HR MIN TEMP:  76; 6HR MAX TEMP:  82;

BELLE CHASSE   PTCLDY    72  69  90 CALM      30.05S
6HR MIN TEMP:  72; 6HR MAX TEMP:  79;

BOGALUSA*        N/A     72  68  89 CALM      30.08S FOG
6HR MIN TEMP:  72; 6HR MAX TEMP:  78;

GALLIANO*      PTCLDY    74  71  89 CALM      30.05S
6HR MIN TEMP:  74; 6HR MAX TEMP:  80;

NEW ROADS*     FAIR      73  72  94 SE3       30.04F
6HR MIN TEMP:  73; 6HR MAX TEMP:  79;

GONZALES*      MOCLDY    72  72 100 CALM      30.04F
6HR MIN TEMP:  72; 6HR MAX TEMP:  79;

HAMMOND*       PTCLDY    72  68  88 CALM      30.07S
HOUMA*         PTCLDY    72  70  93 CALM      30.05S
6HR MIN TEMP:  72; 6HR MAX TEMP:  79;

PORT FOURCHON* PTCLDY    81  70  69 SE9       30.05S

$$

LAZ041-044-053-054-300700-
SOUTHWEST LOUISIANA

CITY           SKY/WX    TMP DP  RH WIND       PRES   REMARKS
LAKE CHARLES   MOCLDY    76  73  91 S5        30.01F
6HR MIN TEMP:  74; 6HR MAX TEMP:  82;

LAFAYETTE      PTCLDY    75  72  90 CALM      30.03F
6HR MIN TEMP:  75; 6HR MAX TEMP:  83; 6HR PCP: TRACE;

PATTERSON      MOCLDY    73  70  88 E3        30.05F
6HR MIN TEMP:  72; 6HR MAX TEMP:  75;

SALT POINT       N/A     76  74  93 CALM      30.02F
6HR MIN TEMP:  76; 6HR MAX TEMP:  81;

NEW IBERIA     PTCLDY    75  73  93 SE5       30.04S
6HR MIN TEMP:  74; 6HR MAX TEMP:  82;

CHENAULT AIRPK CLEAR     73  72  97 SE3       30.02F
6HR MIN TEMP:  73; 6HR MAX TEMP:  82;


$$

LAZ027-028-300700-
CENTRAL LOUISIANA

CITY           SKY/WX    TMP DP  RH WIND       PRES   REMARKS
FORT POLK      CLEAR     74  72  93 S7        30.01S
6HR MIN TEMP:  74; 6HR MAX TEMP:  82;

ALEXANDRIA INT CLEAR     75  73  93 S6        30.01S
6HR MIN TEMP:  73; 6HR MAX TEMP:  83; 6HR PCP:  0.09;

ALEXANDRIA     PTCLDY    73  70  90 CALM      30.02F
6HR MIN TEMP:  73; 6HR MAX TEMP:  82; 6HR PCP:  0.50;


$$

LAZ001-002-300700-
NORTHWEST LOUISIANA

CITY           SKY/WX    TMP DP  RH WIND       PRES   REMARKS
SHREVEPORT     PTCLDY    76  71  85 SW7       29.98S
6HR MIN TEMP:  76; 6HR MAX TEMP:  84;

BARKSDALE AFB  CLEAR     76  71  86 S9        29.98R
6HR MIN TEMP:  76; 6HR MAX TEMP:  85;

DTN SHREVEPORT CLEAR     77  70  79 S12       29.98R
6HR MIN TEMP:  77; 6HR MAX TEMP:  84;


$$

LAZ014-016-300700-
NORTHEAST LOUISIANA

CITY           SKY/WX    TMP DP  RH WIND       PRES   REMARKS
MONROE         CLOUDY    69  67  93 S5        30.01F
6HR MIN TEMP:  68; 6HR MAX TEMP:  85; 6HR PCP:  0.38;

TALLULAH       CLOUDY    70  67  90 CALM      30.03F
6HR MIN TEMP:  69; 6HR MAX TEMP:  85; 6HR PCP:  0.20;


$$




USA.gov is the U.S. government's official web portal to all federal, state and local government web resources and services.